User: anonymous   Login
Location: Unspecified
(0.0000°N, 0.0000°E)
Time: 21:19:02
(UTC+00:00)
Language:

Tiangong 1 - Orbit

View from above orbital plane
View from above orbital plane
View from above satellite
View from above satellite

Ground track
Ground track

The orbit data is extracted from the following two-line orbital elements,

1 37820U 11053A   15144.26917159  .00020106  00000-0  24007-3 0  9990
2 37820 042.7680 057.5710 0012862 229.2805 272.6815 15.60539698209588
Epoch (UTC): 24 May 2015 06:27:36
Eccentricity: 0.0012862
inclination: 42.7680°
perigee height: 377 km
apogee height: 395 km
right ascension of ascending node: 57.5710°
argument of perigee: 229.2805°
revolutions per day: 15.60539698
mean anomaly at epoch: 272.6815°
orbit number at epoch: 20958

The dashed part of the orbit path shows where the satellite is in the earth's shadow,  

DLR